Regional Weather Roundup
Issued by NWS

Home | Current Version | Previous Version | Text Only | Print | Product List | Glossary Off
Versions: 1 2 3 4 5 6 7 8 9 10 11 12 13 14 15 16 17 18 19 20 21 22 23 24 25 26 27 28 29 30 31 32 33 34 35 36 37 38 39 40 41 42 43 44 45 46 47 48 49 50

000
ASUS43 KMKX 220611
RWRWI

WISCONSIN REGIONAL WEATHER ROUNDUP
NATIONAL WEATHER SERVICE MILWAUKEE/SULLIVAN WI
100 AM CDT THU JUN 22 2017

NOTE: "FAIR" INDICATES FEW OR NO CLOUDS BELOW 12,000 FEET WITH NO
SIGNIFICANT WEATHER AND/OR OBSTRUCTIONS TO VISIBILITY.

WIZ001-002-006>008-014>016-023>028-220700-
NORTHWEST WISCONSIN

CITY           SKY/WX    TMP DP  RH WIND       PRES   REMARKS
SUPERIOR ARPT  NOT AVBL
ASHLAND        CLOUDY    53  50  89 N7        29.70F
6HR MIN TEMP:  53; 6HR MAX TEMP:  67;

HAYWARD        CLOUDY    67  57  70 SW5       29.70F
6HR MIN TEMP:  66; 6HR MAX TEMP:  74;

SIREN          CLOUDY    69  58  70 CALM      29.69R
6HR MIN TEMP:  66; 6HR MAX TEMP:  77; 6HR PCP:  0.02;

CUMBERLAND     CLOUDY    64  55  72 S12       29.71F
RICE LAKE      CLOUDY    68  56  66 SE8       29.74F
6HR MIN TEMP:  68; 6HR MAX TEMP:  76;

CHETEK         CLOUDY    67  59  75 CALM      29.73F
6HR MIN TEMP:  66; 6HR MAX TEMP:  75;

LADYSMITH      CLOUDY    66  56  72 S7        29.76F
6HR MIN TEMP:  65; 6HR MAX TEMP:  75;

EAU CLAIRE     CLOUDY    68  56  65 S6        29.72F
6HR MIN TEMP:  68; 6HR MAX TEMP:  76;

MENOMONIE      CLOUDY    67  58  73 CALM      29.73F
6HR MIN TEMP:  67; 6HR MAX TEMP:  76;

NEW RICHMOND   CLOUDY    66  58  75 SE6       29.71F
6HR MIN TEMP:  66; 6HR MAX TEMP:  76;

OSCEOLA        CLOUDY    69  60  72 SE7       29.71F
6HR MIN TEMP:  67; 6HR MAX TEMP:  77;

$$

WIZ003>005-009-010-017-018-220700-
NORTH CENTRAL WISCONSIN

CITY           SKY/WX    TMP DP  RH WIND       PRES   REMARKS
MANITOWISH WTR CLOUDY    63  56  77 S5        29.75F
6HR MIN TEMP:  63; 6HR MAX TEMP:  73;

ARBOR VITAE    CLOUDY    64  56  73 S7        29.76S
6HR MIN TEMP:  64; 6HR MAX TEMP:  73;

WOODRUFF       CLOUDY    64  56  73 S7        29.76S
6HR MIN TEMP:  64; 6HR MAX TEMP:  73;

RHINELANDER    CLOUDY    63  55  75 S7        29.77F
6HR MIN TEMP:  62; 6HR MAX TEMP:  73;

EAGLE RIVER    CLOUDY    61  52  72 CALM      29.77F
6HR MIN TEMP:  61; 6HR MAX TEMP:  72;

LAND O LAKES   MOCLDY    64  54  70 S6        29.78F
6HR MIN TEMP:  61; 6HR MAX TEMP:  74;

PHILLIPS       CLOUDY    64  56  75 S10       29.73F
6HR MIN TEMP:  64; 6HR MAX TEMP:  72;

TOMAHAWK       NOT AVBL
MEDFORD        CLOUDY    64  56  77 CALM      29.78F
6HR MIN TEMP:  63; 6HR MAX TEMP:  72;

MERRILL        PTCLDY    64  57  76 CALM      29.78F
6HR MIN TEMP:  64; 6HR MAX TEMP:  74;

$$

WIZ029-030-035-036-043>047-220700-
CENTRAL WISCONSIN

CITY           SKY/WX    TMP DP  RH WIND       PRES   REMARKS
WAUSAU         CLOUDY    66  56  70 S9        29.77F
6HR MIN TEMP:  65; 6HR MAX TEMP:  74;

MOSINEE        CLOUDY    64  57  77 SE7       29.79F
MARSHFIELD     MOCLDY    64  56  75 S7        29.76F
6HR MIN TEMP:  64; 6HR MAX TEMP:  73;

STEVENS POINT  CLOUDY    63  60  91 S7        29.79F
6HR MIN TEMP:  63; 6HR MAX TEMP:  73;

WAUPACA        HVY RAIN  64  62  92 E6        29.81S VSB 1
6HR MIN TEMP:  64; 6HR MAX TEMP:  76;

WAUTOMA        CLOUDY    66  58  75 E5        29.79F THUNDER
6HR MIN TEMP:  64; 6HR MAX TEMP:  75;

WISC RAPIDS    MOCLDY    64  61  90 E5        29.78F
6HR MIN TEMP:  63; 6HR MAX TEMP:  75; 6HR PCP:  0.04;

CAMP DOUGLAS   MOCLDY    65  60  85 E5        29.76F
6HR MIN TEMP:  65; 6HR MAX TEMP:  75;

$$

WIZ011>013-019>022-031-037>040-048>050-220700-
NORTHEAST WISCONSIN

CITY           SKY/WX    TMP DP  RH WIND       PRES   REMARKS
ANTIGO         CLOUDY    62  56  81 S9        29.79F
6HR MIN TEMP:  60; 6HR MAX TEMP:  71;

SHAWANO        CLOUDY    66  55  67 CALM      29.79F
6HR MIN TEMP:  65; 6HR MAX TEMP:  76;

OCONTO         CLOUDY    65  50  57 S5        29.78F
6HR MIN TEMP:  64; 6HR MAX TEMP:  72;

STURGEON BAY     N/A     62  49  62 S7          N/A
6HR MIN TEMP:  61; 6HR MAX TEMP:  67;

GREEN BAY      CLOUDY    66  52  60 S8        29.80F
6HR MIN TEMP:  65; 6HR MAX TEMP:  75; 6HR PCP: TRACE;

MANITOWOC      TSTM      63  54  72 S13       29.85F
6HR MIN TEMP:  63; 6HR MAX TEMP:  68; 6HR PCP:  0.03;

APPLETON       LGT RAIN  61  55  82 S15       29.81S
CLINTONVILLE   CLOUDY    66  54  63 S7        29.80F
OSHKOSH        CLOUDY    64  58  80 NE5       29.81S
6HR MIN TEMP:  63; 6HR MAX TEMP:  74; 6HR PCP:  0.03;

$$

WIZ032>034-041-042-053>061-220700-
SOUTHWEST WISCONSIN

CITY           SKY/WX    TMP DP  RH WIND       PRES   REMARKS
LA CROSSE      MOCLDY    72  63  73 S10       29.72F
6HR MIN TEMP:  72; 6HR MAX TEMP:  77;

SPARTA         CLOUDY    68  61  78 CALM      29.75F
6HR MIN TEMP:  66; 6HR MAX TEMP:  75;

VIROQUA        MOCLDY    67  64  89 S10       29.76F
6HR MIN TEMP:  67; 6HR MAX TEMP:  73;

BOSCOBEL       CLEAR     69  64  84 CALM      29.76F
6HR MIN TEMP:  68; 6HR MAX TEMP:  77;

PRAIRIE DU CHI CLEAR     71  64  77 E6        29.74F
6HR MIN TEMP:  71; 6HR MAX TEMP:  74;

PLATTEVILLE    CLOUDY    69  67  92 SE8       29.80F
6HR MIN TEMP:  69; 6HR MAX TEMP:  73;

$$

WIZ056-057-062-063-064-067-068-220700-
SOUTH CENTRAL WISCONSIN

CITY           SKY/WX    TMP DP  RH WIND       PRES   REMARKS
REEDSBURG      CLOUDY    69  61  75 S7        29.77F
6HR MIN TEMP:  68; 6HR MAX TEMP:  74;

BARABOO/DELLS  CLOUDY    70  59  68 S14       29.77F
6HR MIN TEMP:  67; 6HR MAX TEMP:  74;

LONE ROCK      CLOUDY    68  62  81 E6        29.77F
6HR MIN TEMP:  68; 6HR MAX TEMP:  74;

MINERAL POINT  CLOUDY    70  64  83 SE12      29.80F
MADISON        CLOUDY    69  59  70 S10       29.80F
6HR MIN TEMP:  68; 6HR MAX TEMP:  75;

MIDDLETON      CLOUDY    72  60  67 S9        29.81F
6HR MIN TEMP:  69; 6HR MAX TEMP:  76;

WATERTOWN      MOCLDY    64  58  81 S5        29.82F
6HR MIN TEMP:  64; 6HR MAX TEMP:  71;

MONROE         PTCLDY    68  61  77 S10       29.82F
JANESVILLE     CLEAR     66  59  77 SE3       29.82F
$$

WIZ051-052-058>065-066-070>072-220700-
SOUTHEAST WISCONSIN

CITY           SKY/WX    TMP DP  RH WIND       PRES   REMARKS
MILWAUKEE      PTCLDY    66  58  75 S8        29.83F
6HR MIN TEMP:  65; 6HR MAX TEMP:  68;

WAUKESHA       CLEAR     63  54  72 S9        29.84F
MILWAUKEE/TIMM MOCLDY    64  52  63 S7        29.84F
RACINE         PTCLDY    66  58  75 S9        29.86F
6HR MIN TEMP:  64; 6HR MAX TEMP:  69;

KENOSHA        CLOUDY    65  59  81 S6        29.85F
6HR MIN TEMP:  65; 6HR MAX TEMP:  70;

FOND DU LAC    CLOUDY    66  53  63 S12       29.79F
6HR MIN TEMP:  66; 6HR MAX TEMP:  75;

SHEBOYGAN      CLOUDY    64  56  75 S8        29.82F
6HR MIN TEMP:  63; 6HR MAX TEMP:  69;

WEST BEND      CLOUDY    63  52  67 S6        29.83F
JUNEAU         CLOUDY    65  56  74 SE10      29.82F
6HR MIN TEMP:  64; 6HR MAX TEMP:  71;

$$

LSZ147-162-220700-
LAKE SUPERIOR

STATION/POSITION TIME  TEMP    WIND        PRES    WAVE
                       AIR SEA DIR/SP/G            HT/PER
                 (UTC) (F)     (DEG/KT/KT) (MB)    (FT/S)
W MID LAKE BUOY  0550   42 39   40/  6/  8 1006.8F   0
DEVILS ISLAND    0600   49      10/ 15/ 17 1006.3F
SAXON HARBOR     0530   61      CALM  /  2 1005.4F
$$

LMZ867-665-643>646-220700-
LAKE MICHIGAN

STATION/POSITION TIME  TEMP    WIND        PRES    WAVE
                       AIR SEA DIR/SP/G            HT/PER
                 (UTC) (F)     (DEG/KT/KT) (MB)    (FT/S)
CHAMBERS ISLAND  0540   64     140/  4/ 10 1008.8F
N MID LAKE BUOY  0550   58 55  180/ 12/ 14 1011.1F   1/ 3
NORTHPORT PIER   0540   63     150/  6/  9 1010.2F
KEWAUNEE LAKESHO 054



USA.gov is the U.S. government's official web portal to all federal, state and local government web resources and services.